Wind_Speed
10 9 9 9 9 10 12 13 14 15 15 16 16 17 17 18 20 20 19 21 22 24 25 27 29 31 34 36 39 38 42 46 49 48 47 49 53 54 53 53 52 49 58
13 12 11 10 11 12 14 14 15 17 14 16 18 18 20 22 24 24 24 25 26 28 29 31 32 34 38 39 43 44 49 49 50 51 54 44 45 44 50 49 45 53 52
18 16 14 14 14 16 17 16 17 17 18 19 19 21 21 21 23 24 26 29 32 34 35 36 36 40 41 42 45 45 46 47 47 46 40 45 45 48 51 53 48 43 49
19 20 21 21 21 23 22 21 21 23 22 23 24 24 23 24 23 24 26 28 30 33 34 37 38 38 38 39 47 47 47 50 49 49 49 50 48 46 57 57 53 53 59
23 23 25 26 26 22 21 23 25 26 25 26 26 26 28 28 28 30 32 33 34 36 38 40 41 43 44 47 46 49 47 49 54 54 52 54 54 53 52 57 64 62 63
27 26 28 29 28 28 27 29 29 29 29 31 32 32 31 30 29 31 34 36 38 40 41 42 44 46 46 49 51 54 56 50 50 49 58 53 59 61 60 56 58 65 62
32 31 31 32 31 29 31 31 29 29 32 31 32 35 35 36 36 37 37 40 42 43 44 44 45 46 46 49 51 55 56 56 51 59 57 57 57 60 61 66 68 68 63
37 37 37 37 37 38 37 35 35 34 34 33 30 31 33 34 37 38 40 44 46 47 48 48 48 49 49 51 53 54 56 57 56 58 60 62 63 63 65 65 67 65 69
46 44 44 43 43 44 43 45 48 40 41 36 37 39 39 38 39 39 41 44 45 48 50 53 54 55 55 54 56 58 59 61 61 61 61 63 68 67 69 65 70 69 77
51 50 49 47 47 49 48 48 48 41 43 48 45 42 41 41 43 46 49 49 46 48 48 51 54 55 57 62 63 63 64 65 65 67 68 68 72 71 64 70 73 71 65
51 51 53 50 49 51 54 51 52 55 56 52 53 49 47 49 53 55 57 60 60 60 60 58 58 59 61 60 62 65 68 68 70 71 71 72 77 67 81 75 81 82 82
45 45 56 52 52 51 47 58 58 54 54 56 54 57 61 61 59 61 61 63 64 65 73 65 62 64 71 68 64 65 66 67 68 71 70 72 74 77 83 83 77 78 82
51 51 54 56 57 60 57 52 52 55 59 59 58 62 64 61 66 69 65 61 67 67 58 68 71 74 76 78 68 66 68 67 68 68 71 69 69 71 72 77 81 86 86
54 54 55 56 58 61 62 61 58 61 62 62 64 70 73 70 73 77 78 71 59 72 68 70 75 75 75 77 69 67 67 69 69 70 72 69 80 81 78 80 82 84 86
55 58 59 58 59 60 61 62 62 63 66 69 68 71 71 73 69 68 72 64 66 72 74 74 75 79 82 82 80 72 74 77 73 72 73 75 74 73 78 81 84 87 89
48 51 58 61 60 61 60 62 64 70 76 71 68 69 69 79 59 59 76 77 76 76 74 76 76 78 73 71 74 74 62 64 66 64 68 72 74 78 82 86 90 92 94
49 49 54 60 62 60 59 58 58 61 42 55 77 73 69 81 79 79 80 79 76 73 69 69 62 57 55 57 59 62 65 68 73 77 78 83 86 89 92 93 94 98 100
48 52 52 51 56 59 55 62 60 59 63 63 55 56 60 67 72 64 68 67 64 57 54 55 58 59 60 60 63 66 68 69 73 77 82 85 90 94 96 98 100 101 100
50 48 52 56 54 54 56 61 65 57 48 50 49 47 48 60 55 53 51 53 55 57 54 55 60 66 68 68 68 70 74 77 82 85 88 89 92 94 97 98 98 100 102
49 48 46 47 52 53 50 50 49 44 43 42 45 46 44 46 47 50 48 53 60 61 65 67 68 71 73 75 77 79 81 83 86 88 89 91 92 93 95 97 101 103 105
44 42 44 40 41 43 44 44 46 45 43 44 45 47 49 50 53 55 57 59 61 64 68 70 73 74 75 77 80 81 81 83 84 85 87 90 92 96 98 101 100 99 97
53 53 50 47 47 47 47 47 47 49 50 51 51 52 54 55 57 58 61 65 69 71 72 74 75 74 76 78 80 81 82 83 86 89 92 93 95 94 93 91 90 88 86
48 47 49 49 50 51 52 51 53 54 55 55 55 55 55 56 57 59 62 63 64 65 67 70 71 74 76 78 81 83 85 86 87 90 87 86 83 82 81 80 78 76 75
46 46 48 49 50 50 51 52 53 54 55 56 56 57 58 58 58 59 61 64 66 68 71 73 75 77 80 81 80 79 76 75 75 75 75 74 73 72 72 71 70 69 65
46 47 47 49 50 51 52 53 54 55 55 56 57 58 61 63 64 66 68 71 72 74 76 77 78 78 74 67 65 65 66 67 68 68 69 68 67 66 65 63 60 53 44
46 47 48 49 49 49 49 51 53 55 57 60 63 64 66 68 71 74 76 77 77 76 73 68 63 58 57 58 60 63 65 66 66 65 64 62 60 59 57 49 39 32 29
Wind_Direction
256 268 265 259 257 254 254 258 257 256 258 261 263 266 266 263 253 245 242 241 248 251 251 251 255 260 264 269 272 269 273 280 283 283 288 290 290 287 275 281 283 273 281
257 255 260 263 263 265 261 263 265 261 254 261 254 264 266 265 259 254 255 260 259 256 257 260 262 265 267 270 273 271 277 282 281 284 283 293 284 284 281 280 282 282 279
260 253 256 265 268 271 272 276 275 270 267 267 266 263 261 265 255 255 261 264 265 263 263 266 267 268 268 271 275 274 279 281 282 288 280 286 281 289 282 281 285 280 286
265 259 260 268 274 283 283 280 272 269 271 273 272 271 271 268 263 262 267 264 263 260 262 264 267 270 270 276 278 279 283 283 284 283 283 283 284 283 288 283 291 292 292
264 262 261 264 278 282 282 280 283 284 281 275 273 276 276 273 271 266 267 267 267 265 265 267 270 272 271 274 280 278 280 292 287 284 283 283 289 276 284 282 289 296 297
266 270 273 275 277 279 278 276 283 287 280 280 281 275 274 275 273 272 271 270 269 269 270 271 272 273 276 278 278 278 274 287 279 286 275 284 282 283 288 288 287 295 295
263 267 272 276 278 279 277 278 283 281 279 283 276 272 272 272 272 273 275 275 274 275 276 275 275 276 278 280 279 280 280 282 288 285 282 279 282 287 294 289 276 300 288
265 268 272 274 275 275 274 274 277 277 278 280 280 276 274 278 279 277 277 274 276 278 279 280 279 279 279 279 281 281 282 282 282 286 284 285 286 288 289 287 289 292 282
260 260 261 265 270 272 274 281 272 276 278 275 275 272 275 278 282 283 283 282 280 279 280 281 282 282 282 282 283 282 283 283 283 284 286 282 286 286 283 282 288 285 281
266 266 263 263 267 269 270 269 272 268 273 276 276 277 275 269 270 274 277 281 281 282 284 284 284 287 287 283 281 281 283 284 285 285 284 285 286 286 278 285 284 286 287
258 262 267 267 266 269 274 272 267 266 270 271 274 273 274 275 278 279 278 278 281 284 285 286 284 285 286 282 280 281 281 282 283 283 286 289 287 274 277 278 288 287 283
268 266 259 266 268 268 274 270 270 271 268 267 266 268 272 270 271 275 277 279 284 281 284 278 285 286 292 281 280 279 279 281 284 286 286 281 278 276 285 283 280 277 280
258 260 260 259 261 262 266 267 267 264 266 268 265 263 270 270 272 276 277 281 281 277 274 284 287 290 292 284 278 278 279 281 284 282 289 284 281 280 281 281 281 283 290
256 256 257 259 261 262 264 263 264 267 267 267 270 272 273 272 276 270 267 271 276 276 274 281 285 288 288 283 276 276 279 278 281 280 283 272 277 286 287 287 286 286 288
257 258 260 260 261 262 262 263 263 261 263 266 267 272 274 273 272 272 273 277 274 278 281 283 283 285 284 286 277 274 276 277 274 269 269 272 280 284 283 285 288 292 293
267 265 261 260 260 263 265 266 266 267 263 262 267 271 275 270 263 267 276 279 280 279 281 283 283 283 277 279 276 276 270 278 281 281 283 284 282 283 286 290 292 293 294
270 270 265 261 262 261 265 266 266 252 261 276 272 264 266 271 275 272 271 275 276 276 277 276 273 270 275 274 273 278 282 285 284 283 282 284 288 292 294 293 293 294 294
280 271 268 267 263 262 256 263 256 253 262 252 248 252 254 262 264 265 270 276 273 269 270 265 270 276 279 281 283 283 282 282 282 281 288 288 289 290 290 291 292 293 294
284 282 272 266 272 273 269 273 269 281 286 278 261 263 264 261 265 267 268 267 267 277 276 276 280 282 285 286 286 285 283 282 284 286 287 288 288 289 291 293 294 294 294
280 281 275 271 271 271 272 277 285 290 289 288 279 278 277 282 284 285 281 277 277 275 278 281 284 287 288 287 287 286 285 286 286 288 289 291 293 294 295 294 294 295 296
267 272 277 274 273 272 274 276 279 285 287 286 284 283 282 283 284 283 284 282 280 277 276 278 280 281 282 283 285 287 288 289 292 294 294 295 295 295 296 297 297 297 298
277 273 273 272 276 276 275 275 277 280 281 281 279 277 277 277 278 279 280 280 280 281 283 285 285 286 287 288 290 292 293 294 295 295 296 297 297 298 298 298 299 300 301
267 267 268 269 272 274 275 277 279 281 282 282 282 282 281 281 282 282 283 283 284 285 285 287 290 290 291 292 293 294 295 296 297 297 298 298 298 299 300 301 302 302 303
275 276 276 276 277 277 278 280 282 282 283 283 285 286 287 289 289 289 290 290 291 292 293 293 293 294 294 295 296 297 297 297 297 298 299 300 302 303 303 304 306 306 306
281 279 279 279 279 280 280 282 283 284 286 287 288 289 290 290 291 292 292 292 292 292 292 293 295 296 297 298 297 299 300 301 302 303 304 304 304 305 306 307 306 305 307
283 282 282 282 282 283 283 284 285 286 288 289 289 290 291 292 292 292 292 292 293 294 295 295 295 295 296 299 302 304 305 304 304 304 305 305 307 307 307 306 305 307 312
Height
5698 5699 5699 5700 5700 5701 5702 5702 5703 5705 5706 5707 5706 5706 5707 5709 5709 5710 5711 5713 5714 5716 5718 5718 5719 5720 5720 5719 5720 5720 5718 5715 5712 5710 5708 5708 5705 5704 5703 5703 5699 5698 5696
5696 5696 5697 5698 5698 5699 5699 5699 5700 5701 5702 5702 5703 5704 5704 5705 5704 5705 5706 5707 5708 5709 5710 5709 5711 5711 5711 5711 5710 5708 5706 5705 5702 5699 5697 5694 5691 5689 5688 5688 5687 5686 5683
5692 5693 5694 5695 5695 5695 5696 5697 5698 5698 5697 5697 5698 5698 5698 5698 5697 5699 5700 5700 5700 5702 5702 5701 5702 5702 5702 5703 5700 5697 5695 5692 5689 5687 5685 5682 5681 5679 5677 5676 5675 5670 5668
5686 5688 5690 5690 5690 5691 5691 5692 5692 5692 5693 5693 5692 5692 5692 5691 5693 5694 5694 5694 5693 5693 5693 5692 5692 5691 5692 5691 5688 5686 5684 5681 5678 5675 5674 5671 5670 5667 5663 5663 5659 5658 5654
5679 5681 5683 5683 5684 5684 5684 5684 5684 5684 5685 5685 5686 5687 5686 5687 5688 5688 5687 5686 5686 5685 5684 5684 5683 5682 5680 5679 5675 5674 5671 5668 5665 5662 5661 5659 5656 5652 5650 5647 5644 5641 5637
5672 5674 5674 5675 5676 5677 5678 5677 5677 5677 5677 5677 5677 5677 5677 5678 5679 5678 5677 5676 5674 5674 5674 5673 5672 5670 5670 5666 5662 5660 5659 5655 5652 5649 5649 5645 5636 5637 5639 5633 5628 5628 5625
5665 5666 5667 5667 5668 5669 5668 5668 5669 5669 5668 5668 5668 5667 5668 5668 5669 5668 5667 5663 5661 5661 5660 5660 5659 5658 5657 5654 5651 5648 5644 5641 5639 5637 5633 5631 5628 5627 5624 5618 5614 5612 5608
5654 5656 5657 5656 5657 5657 5658 5660 5660 5659 5659 5658 5658 5658 5658 5658 5657 5656 5655 5652 5650 5650 5648 5646 5645 5644 5644 5641 5638 5635 5631 5627 5626 5625 5620 5616 5613 5610 5607 5604 5600 5595 5589
5643 5644 5643 5644 5646 5646 5647 5649 5648 5648 5648 5649 5649 5647 5646 5648 5645 5646 5643 5641 5639 5637 5635 5634 5632 5630 5628 5626 5623 5619 5615 5612 5609 5608 5604 5603 5597 5593 5588 5584 5583 5579 5574
5632 5632 5633 5635 5634 5634 5635 5637 5637 5634 5636 5636 5637 5637 5636 5635 5634 5634 5632 5629 5626 5625 5624 5621 5619 5616 5613 5611 5607 5603 5599 5595 5592 5589 5587 5583 5579 5575 5569 5565 5562 5560 5554
5620 5621 5619 5620 5622 5622 5622 5621 5623 5624 5624 5625 5624 5622 5621 5621 5620 5620 5618 5615 5613 5612 5610 5608 5606 5603 5599 5594 5590 5586 5583 5578 5576 5572 5569 5565 5560 5557 5553 5549 5545 5541 5535
5608 5608 5608 5608 5608 5609 5609 5608 5607 5608 5608 5608 5608 5607 5605 5605 5605 5604 5601 5599 5596 5595 5590 5590 5588 5586 5582 5578 5573 5569 5565 5562 5559 5555 5551 5548 5545 5539 5534 5529 5523 5518 5513
5595 5595 5595 5595 5594 5594 5594 5593 5592 5593 5592 5591 5591 5590 5589 5587 5586 5584 5582 5580 5578 5579 5577 5570 5569 5568 5563 5558 5554 5551 5547 5544 5539 5536 5532 5527 5522 5518 5514 5510 5505 5499 5491
5580 5580 5580 5580 5580 5580 5579 5579 5579 5578 5577 5576 5575 5574 5572 5571 5568 5562 5556 5560 5561 5560 5556 5553 5551 5548 5544 5539 5534 5531 5528 5524 5521 5517 5512 5508 5503 5497 5491 5486 5481 5475 5470
5564 5563 5563 5564 5564 5564 5563 5563 5563 5561 5560 5559 5559 5558 5555 5553 5551 5552 5540 5547 5544 5540 5536 5534 5531 5527 5523 5518 5514 5511 5507 5504 5499 5494 5488 5483 5479 5475 5469 5463 5457 5452 5447
5547 5546 5545 5546 5546 5547 5547 5547 5547 5542 5538 5539 5541 5541 5539 5527 5530 5529 5527 5525 5521 5519 5516 5514 5511 5505 5501 5498 5495 5493 5487 5483 5479 5474 5468 5464 5459 5453 5448 5441 5434 5428 5421
5532 5531 5529 5528 5528 5529 5529 5529 5529 5526 5514 5519 5520 5521 5522 5515 5510 5510 5509 5507 5504 5501 5497 5494 5489 5486 5484 5480 5476 5472 5468 5464 5458 5454 5450 5443 5437 5431 5424 5416 5408 5402 5394
5516 5515 5513 5513 5512 5511 5510 5510 5510 5509 5505 5505 5499 5496 5496 5495 5494 5491 5490 5486 5484 5481 5477 5474 5471 5467 5465 5461 5457 5452 5448 5443 5439 5433 5428 5422 5416 5408 5399 5392 5383 5374 5367
5500 5498 5497 5496 5495 5494 5493 5489 5488 5486 5485 5486 5483 5478 5476 5474 5474 5470 5469 5468 5465 5462 5459 5455 5452 5448 5445 5440 5436 5431 5427 5423 5417 5410 5403 5396 5390 5382 5374 5364 5356 5347 5338
5486 5485 5482 5480 5479 5479 5477 5474 5470 5468 5468 5468 5465 5463 5461 5458 5456 5454 5452 5449 5447 5443 5440 5436 5431 5427 5423 5418 5413 5408 5403 5398 5393 5385 5379 5372 5364 5354 5345 5337 5327 5317 5306
5471 5470 5469 5466 5465 5463 5461 5459 5457 5453 5450 5450 5450 5448 5446 5443 5440 5437 5434 5431 5428 5425 5421 5419 5413 5408 5402 5397 5393 5387 5381 5375 5367 5359 5351 5343 5335 5326 5316 5307 5295 5284 5273
5455 5453 5452 5451 5450 5448 5446 5444 5442 5441 5439 5436 5434 5432 5429 5426 5423 5419 5416 5413 5409 5405 5399 5396 5392 5387 5380 5374 5368 5362 5356 5348 5341 5331 5324 5315 5306 5296 5286 5276 5265 5255 5244
5440 5437 5436 5434 5433 5432 5430 5428 5425 5422 5420 5417 5414 5411 5408 5405 5403 5399 5396 5393 5388 5382 5379 5375 5368 5364 5358 5352 5345 5337 5329 5320 5312 5304 5296 5288 5279 5270 5260 5250 5240 5230 5221
5424 5422 5420 5418 5416 5415 5412 5410 5407 5404 5401 5398 5394 5391 5388 5383 5381 5377 5373 5369 5364 5358 5353 5348 5344 5337 5331 5326 5316 5307 5302 5294 5288 5281 5273 5265 5255 5246 5237 5228 5219 5210 5202
5408 5406 5404 5402 5400 5397 5394 5391 5389 5385 5382 5379 5375 5372 5368 5364 5360 5355 5351 5347 5343 5338 5332 5325 5319 5312 5305 5298 5293 5287 5281 5274 5266 5259 5250 5242 5235 5226 5218 5210 5202 5195 5189
5393 5392 5390 5387 5384 5382 5378 5375 5372 5369 5365 5362 5358 5354 5349 5344 5339 5335 5330 5324 5319 5313 5307 5302 5296 5291 5287 5282 5276 5269 5262 5254 5247 5239 5232 5224 5216 5209 5202 5197 5191 5185 5181